Location: Berlin
(42.3812°N, 71.6370°W)
Time: 06:04:35
(UTC+00:00)

SJ-11-01 - Pass Details

Date: 15 November 2025
Orbit: 675 x 689 km, 98.0° (Epoch: 09 December)

Event Time Altitude Azimuth Distance (km) Brightness Sun altitude
Rises 09:57:03 0° 8° (N) 3,066 7.6 -18.6°
Reaches altitude 10° 09:59:20 10° 5° (N) 2,147 6.8 -18.2°
Maximum altitude 10:03:56 57° 287° (WNW) 813 4.3 -17.3°
Drops below altitude 10° 10:08:30 10° 209° (SSW) 2,134 6.6 -16.5°
Sets 10:10:46 0° 206° (SSW) 3,046 7.5 -16.1°
